Location: Kunchanapalle
(16.4623°N, 80.6176°E)
Time: 18:13:41
(UTC+00:00)

Cosmos 482 Debris - Pass Details

Date: 13 August 2020
Orbit: 201 x 2230 km, 52.1° (Epoch: 17 September)

Event Time Altitude Azimuth Distance (km) Brightness Sun altitude
Exits shadow 23:26:44 24° 208° (SSW) 671 4.4 -13.3°
Drops below altitude 10° 23:28:03 10° 176° (S) 1,056 5.6 -13.0°
Sets 23:29:42 0° 162° (SSE) 1,737 6.9 -12.7°
